Location: Limoges
(45.8354°N, 1.2645°E)
Time: 21:00:33
(UTC+02:00)

Courier 1B Rocket - Pass Details

Date: 27 February 2024
Orbit: 920 x 1201 km, 28.2° (Epoch: 21 April)

Event Time Altitude Azimuth Distance (km) Brightness Sun altitude
Rises 05:28:20 0° 240° (WSW) 3,565 - -23.3°
Reaches altitude 10° 05:32:16 10° 217° (SW) 2,605 - -22.7°
Exits shadow 05:34:36 14° 195° (SSW) 2,328 6.7 -22.3°
Maximum altitude 05:35:23 14° 186° (S) 2,309 6.8 -22.1°
Drops below altitude 10° 05:38:31 10° 156° (SSE) 2,609 7.4 -21.6°
Sets 05:42:28 0° 132° (SE) 3,576 8.5 -20.9°
